TimeEDT,TemperatureF,Dew PointF,Humidity,Sea Level PressureIn,VisibilityMPH,Wind Direction,Wind SpeedMPH,Gust SpeedMPH,PrecipitationIn,Events,Conditions,WindDirDegrees,DateUTC
12:53 AM,55.0,46.0,72,30.26,10.0,Calm,Calm,-,N/A,,Clear,0,2013-09-06 04:53:00
1:53 AM,52.0,45.0,77,30.27,10.0,Calm,Calm,-,N/A,,Clear,0,2013-09-06 05:53:00
2:53 AM,51.1,46.0,83,30.27,10.0,East,4.6,-,N/A,,Clear,90,2013-09-06 06:53:00
3:53 AM,51.1,45.0,80,30.25,10.0,South,5.8,-,N/A,,Clear,180,2013-09-06 07:53:00
4:53 AM,51.1,45.0,80,30.25,10.0,SE,4.6,-,N/A,,Clear,140,2013-09-06 08:53:00
5:53 AM,51.1,46.0,83,30.26,10.0,South,6.9,-,N/A,,Clear,170,2013-09-06 09:53:00
6:53 AM,51.1,46.9,86,30.27,10.0,Calm,Calm,-,N/A,,Partly Cloudy,0,2013-09-06 10:53:00
7:53 AM,52.0,48.0,86,30.28,10.0,SSE,3.5,-,N/A,,Mostly Cloudy,150,2013-09-06 11:53:00
8:53 AM,55.9,51.1,84,30.28,10.0,South,4.6,-,N/A,,Mostly Cloudy,170,2013-09-06 12:53:00
9:53 AM,62.1,52.0,70,30.27,10.0,South,10.4,-,N/A,,Mostly Cloudy,170,2013-09-06 13:53:00
10:53 AM,66.9,50.0,54,30.26,10.0,South,11.5,-,N/A,,Mostly Cloudy,170,2013-09-06 14:53:00
11:53 AM,70.0,50.0,49,30.24,10.0,SSW,6.9,-,N/A,,Mostly Cloudy,200,2013-09-06 15:53:00
12:53 PM,72.0,48.0,43,30.22,10.0,SSE,5.8,-,N/A,,Mostly Cloudy,160,2013-09-06 16:53:00
1:53 PM,75.0,48.0,38,30.20,10.0,SW,6.9,-,N/A,,Mostly Cloudy,220,2013-09-06 17:53:00
2:53 PM,77.0,48.9,37,30.16,10.0,SW,6.9,-,N/A,,Mostly Cloudy,220,2013-09-06 18:53:00
3:53 PM,78.1,50.0,37,30.15,10.0,SSW,11.5,-,N/A,,Scattered Clouds,200,2013-09-06 19:53:00
4:53 PM,79.0,48.0,34,30.14,10.0,SSW,8.1,-,N/A,,Mostly Cloudy,200,2013-09-06 20:53:00
5:53 PM,79.0,48.0,34,30.12,10.0,South,9.2,-,N/A,,Scattered Clouds,180,2013-09-06 21:53:00
6:53 PM,77.0,48.9,37,30.11,10.0,South,6.9,-,N/A,,Mostly Cloudy,180,2013-09-06 22:53:00
7:53 PM,73.9,51.1,45,30.09,10.0,South,5.8,-,N/A,,Mostly Cloudy,180,2013-09-06 23:53:00
8:53 PM,69.1,52.0,54,30.09,10.0,SE,3.5,-,N/A,,Scattered Clouds,140,2013-09-07 00:53:00
9:53 PM,66.0,54.0,65,30.08,10.0,South,6.9,-,N/A,,Scattered Clouds,170,2013-09-07 01:53:00
10:53 PM,66.0,54.0,65,30.06,10.0,South,8.1,-,N/A,,Scattered Clouds,180,2013-09-07 02:53:00
11:53 PM,68.0,54.0,61,30.04,10.0,South,8.1,-,N/A,,Partly Cloudy,190,2013-09-07 03:53:00